Regional Weather Roundup
Issued by NWS Bismarck, ND

Home | Current Version | Previous Version | Text Only | Print | Product List | Glossary On
Versions: 1 2 3 4 5 6 7 8 9 10 11 12 13 14 15 16 17 18 19 20 21 22 23 24 25 26 27 28 29 30 31 32 33 34 35 36 37 38 39 40 41 42 43 44 45 46 47 48 49 50
000
ASUS43 KBIS 280010
RWRBIS

NWR BROADCAST TEXT
NATIONAL WEATHER SERVICE BISMARCK ND
700 PM CDT FRI MAY 27 2016

NOTE: "FAIR" INDICATES FEW OR NO CLOUDS BELOW 12,000 FEET WITH NO
SIGNIFICANT WEATHER AND/OR OBSTRUCTIONS TO VISIBILITY.


CITY           SKY/WX    TMP DP  RH WIND       PRES   REMARKS
WILLISTON      PTSUNNY   66  51  58 NE13      29.83S
MINOT          SUNNY     72  49  44 VRB5      29.80S
MINOT AFB      CLOUDY    63  55  75 NE15      29.80R
BISMARCK       MOSUNNY   69  47  45 CALM      29.78F
DICKINSON      CLOUDY    65  43  44 E8        29.79S
GARRISON         N/A     67  50  54 CALM      29.80S
HETTINGER ARPT CLOUDY    65  48  54 CALM      29.82F
JAMESTOWN      CLOUDY    70  48  45 N6        29.77S
BEACH          CLOUDY    64  43  45 SE6       29.84S
CARRINGTON     FAIR      70  50  49 N9        29.81S
HAZEN          FAIR      66  46  48 CALM      29.81F
LINTON         FAIR      72  52  49 CALM        N/A
MANDAN         FAIR      68  46  45 CALM      29.80S
OAKES            N/A    N/A N/A N/A MISG        N/A
RUGBY          FAIR      63  57  82 NE20      29.81S
STANLEY        CLOUDY    59  59 100 NW7       29.85S
WATFORD CITY   FAIR      64  50  59 E6        29.82S
$$

CITY           SKY/WX    TMP DP  RH WIND       PRES   REMARKS
GRAND FORKS    MOSUNNY   74  54  49 N9        29.75S
GRAND FORKS AF MOSUNNY   72  52  48 E6        29.77S
DEVILS LAKE    MOSUNNY   70  47  43 CALM      29.80S
FARGO          CLOUDY    63  60  90 W6        29.75F
CAVALIER       FAIR      68  59  73 NW10      29.78S THUNDER
GRAFTON        FAIR      72  55  56 NE6       29.79R
GWINNER        FAIR      61  59  94 NW13      29.78S
LANGDON        FAIR      64  59  82 N15G21    29.82S
ROLLA          CLOUDY    55  55 100 NE16      29.86F
WALHALLA       FAIR      66  66 100 N16       29.80S
$$

CITY           SKY/WX    TMP DP  RH WIND       PRES   REMARKS
ABERDEEN       CLOUDY    65  58  78 W5        29.75F
MOBRIDGE       CLOUDY    71  47  42 SW5       29.75F
BUFFALO          N/A     64  46  52 SE5       29.76S
RAPID CITY     MOSUNNY   61  48  62 SE8       29.83F
GLASGOW        PTSUNNY   69  46  43 E5        29.80F
SIDNEY         CLOUDY    66  48  52 NE7       29.81S
WOLF POINT     MOSUNNY   71  48  43 E10       29.81S
GLENDIVE       MOSUNNY   68  46  45 NE10      29.83R
MILES CITY     CLOUDY    68  47  46 NE8       29.80F
BAKER          MOSUNNY   67  45  45 VRB6      29.82S
$$

CITY           SKY/WX    TMP DP  RH WIND       PRES   REMARKS
BILLINGS       TSTM      58  50  75 NE13G25   29.88R
GREAT FALLS    CLOUDY    59  40  49 N15       29.85R
REGINA         PTSUNNY   68  48  49 E18G25    29.86S
ESTEVAN        PTSUNNY   64  55  72 E14       29.85S
$$




USA.gov is the U.S. government's official web portal to all federal, state and local government web resources and services.